Home > Weather > Peoria > Past weeks

Flag for USA Past Weather in Peoria, Illinois, USA — Yesterday and Last 2 Weeks

Now
81 °F

Sunny.


Feels Like: 83 °F
Forecast: 67 / 78 °F
Wind: 8 mph from South

Location: Greater Peoria Regional Airport

Current Time: May 26, 2016 at 7:37:59 PM

Latest Report: May 26, 2016 at 6:54 PM


Visibility: 10 mi

Pressure: 29.81 "Hg

Humidity: 58%

Dew Point: 65 °F

Location of PeoriaLocation

Past Weather in Peoria — Graph

°F

Peoria Temperature Yesterday

Maximum temperature yesterday: 85 °F (at 1:54 PM)
Minimum temperature yesterday: 64 °F (at 4:54 AM)
Average temperature yesterday: 75 °F

High & Low Weather Summary for the Past Weeks

 TemperatureHumidityPressure
High85 °F (May 22, 2:54 PM)94% (May 12, 3:54 AM)30.27 "Hg (May 12, 3:54 AM)
Low41 °F (May 14, 3:54 AM)23% (May 18, 2:54 PM)29.80 "Hg (May 26, 5:54 PM)
Average63 °F58%30.06 "Hg
* Reported May 11 5:54 PM — May 26 5:54 PM, Peoria, Weather by CustomWeather, © 2016

Note: Actual official high and low records may vary slightly from our data, if they occured in-between our weather recording intervals... More about our weather records

Advertising

Peoria Weather History for the Previous 24 Hours

Scroll right to see more
 ConditionsComfort  
Time TempWeatherWind HumidityBarometerVisibility
5:54 PM
Thu, May 26
84 °FSunny.10 mph55%29.80 "Hg10 mi
4:54 PM84 °FSunny.13 mph49%29.82 "Hg10 mi
3:54 PM85 °FSunny.8 mph51%29.84 "Hg10 mi
2:54 PM83 °FSunny.9 mph53%29.85 "Hg10 mi
1:54 PM80 °FSunny.6 mph58%29.89 "Hg10 mi
12:54 PM80 °FSunny.6 mph60%29.89 "Hg10 mi
11:54 AM75 °FSunny.7 mph71%29.90 "Hg10 mi
10:54 AM70 °FSunny.8 mph81%29.93 "Hg10 mi
9:54 AM68 °FSunny.13 mph87%29.94 "Hg10 mi
8:54 AM67 °FSunny.5 mph87%29.90 "Hg10 mi
8:02 AM66 °FLight rain. Partly sunny.5 mph93%29.91 "Hg10 mi
7:54 AM66 °FThundershowers. Partly sunny.5 mph93%29.90 "Hg8 mi
6:54 AM67 °FThunderstorms. Overcast.7 mph87%29.97 "Hg7 mi
5:54 AM69 °FPassing clouds.8 mph87%29.93 "Hg10 mi
4:54 AM69 °FPassing clouds.8 mph87%29.88 "Hg10 mi
3:54 AM69 °FOvercast.8 mph87%29.89 "Hg10 mi
2:54 AM68 °FClear.7 mph90%29.90 "Hg10 mi
1:54 AM69 °FClear.7 mph87%29.90 "Hg10 mi
12:54 AM70 °FClear.7 mph84%29.91 "Hg10 mi
11:54 PM
Wed, May 25
72 °FClear.8 mph78%29.91 "Hg10 mi
10:54 PM73 °FClear.8 mph76%29.92 "Hg10 mi
9:54 PM74 °FClear.6 mph69%29.92 "Hg10 mi
8:54 PM77 °FSunny.9 mph62%29.90 "Hg10 mi
7:54 PM79 °FSunny.10 mph60%29.88 "Hg10 mi
Weather by CustomWeather, © 2016

See weather overviewHow to use our weather pages